Temp_Advection
nan nan nan nan nan nan nan nan nan nan nan nan nan nan nan nan nan nan nan nan nan nan nan nan nan nan nan nan nan nan nan nan nan nan nan nan nan nan nan nan nan nan nan
nan -1 -0 -0 0 0 0 0 1 1 1 1 1 1 1 1 0 0 0 0 0 0 0 0 0 0 0 0 0 0 0 0 0 0 -0 -0 0 0 0 0 0 0 nan
nan 0 -0 -0 0 1 -0 0 1 1 1 1 1 1 1 1 1 0 0 0 0 0 0 0 0 0 0 0 0 0 0 0 0 0 0 -0 -0 -0 0 0 0 0 nan
nan 1 1 0 0 0 0 1 1 1 1 1 1 1 0 1 1 1 1 1 1 1 0 0 0 0 0 0 0 0 0 0 0 0 0 0 0 -0 -0 0 0 0 nan
nan 2 1 1 1 1 0 1 0 0 1 1 1 1 1 1 0 1 1 1 0 1 1 0 0 0 0 0 0 0 0 0 0 0 0 0 0 0 -0 -0 0 0 nan
nan 1 1 2 2 1 1 1 0 1 1 1 1 0 0 0 0 1 1 1 0 0 0 0 0 0 0 0 0 0 0 0 0 0 0 0 0 0 0 0 -0 0 nan
nan 1 1 1 1 1 1 1 1 1 1 0 0 0 0 1 1 1 1 1 0 0 0 0 0 0 0 0 0 0 0 0 0 0 0 0 0 0 0 0 0 0 nan
nan 1 1 0 1 1 0 0 0 1 0 0 0 1 1 1 1 1 1 1 0 0 0 0 0 0 0 0 0 0 0 0 0 0 0 0 0 0 0 0 0 0 nan
nan 2 1 2 1 1 1 1 1 1 0 1 1 1 1 1 1 1 1 0 0 0 0 0 0 0 0 0 0 0 0 0 0 0 0 0 0 -0 -0 -0 0 0 nan
nan 1 1 2 1 1 1 1 1 1 1 1 1 1 1 1 1 1 0 0 0 0 0 0 0 0 0 0 0 0 0 0 0 0 -0 -0 -0 -0 -0 -0 -0 -0 nan
nan 1 1 1 1 1 1 1 1 1 1 1 1 1 0 0 1 0 0 0 0 0 0 0 0 0 0 0 0 0 0 -0 -0 -0 -0 -0 -0 -0 -0 -0 -0 -0 nan
nan 1 1 1 1 1 1 1 1 1 1 1 0 0 0 0 0 0 0 0 0 0 0 0 0 0 0 0 0 0 -0 -0 -0 -0 -0 -0 -0 -0 -0 -0 -0 0 nan
nan 1 1 1 1 1 1 1 1 1 1 1 1 0 0 0 0 0 0 0 0 0 0 0 0 0 0 0 0 0 -0 -0 -0 -0 -0 -0 -0 -0 -0 -0 -0 -0 nan
nan 1 1 1 1 1 1 1 1 1 1 1 1 1 1 1 0 0 0 0 0 0 0 0 0 0 0 0 0 -0 -0 -0 -0 -0 -0 -0 -0 -0 -0 -0 -0 -0 nan
nan 1 1 1 1 1 1 0 1 1 1 1 1 1 1 1 1 1 0 0 0 0 0 0 0 0 0 0 0 -0 -0 -0 -0 -0 -0 -0 -0 -0 -0 -0 -0 -0 nan
nan 1 1 0 0 0 0 0 0 1 1 1 1 1 1 1 1 0 0 0 0 0 0 0 0 0 0 0 -0 -0 -0 -0 0 0 -0 -0 -0 -0 -0 0 0 0 nan
nan -0 1 1 0 0 1 0 0 0 1 1 1 1 0 0 0 0 0 0 0 0 0 0 0 -0 0 0 0 -0 -1 -1 -0 -0 -0 -0 -0 -0 -0 -0 -0 -0 nan
nan -0 0 0 1 1 1 1 0 0 0 0 1 1 0 0 0 0 0 0 0 0 0 0 -0 -0 -0 -0 0 -0 -1 -1 -1 -0 -1 -1 -1 -1 -0 -0 -0 -0 nan
nan 2 1 0 0 1 0 1 1 1 1 1 1 1 0 0 0 0 0 0 0 0 0 -0 -0 -0 -0 -0 0 -0 -1 -1 -1 -1 -1 -0 -1 -1 -1 -0 -0 -0 nan
nan 1 2 1 0 0 1 1 0 0 1 1 1 0 0 0 0 0 0 0 0 0 -0 -0 -0 -0 -0 -0 -0 -0 -0 -0 -0 -0 -0 -0 -0 -0 -0 -0 0 -0 nan
nan 0 1 1 1 0 0 1 1 0 0 0 0 0 0 0 0 0 0 0 0 -0 -0 -0 -0 -0 -0 -0 -0 -0 -0 0 -0 -0 -0 -0 0 -0 -1 -1 -0 -0 nan
nan 1 0 1 1 1 1 0 1 0 0 0 0 0 0 0 0 0 0 0 -0 -0 -0 -0 -0 -0 -0 -0 -0 -0 -0 -0 0 -0 -0 -0 -0 -0 -0 -1 -1 -1 nan
nan 0 0 0 0 1 1 0 0 0 0 -0 0 0 0 0 0 0 0 0 -0 -0 -0 -0 -0 -0 -0 -0 -0 0 -0 -0 0 0 -0 -0 -0 -0 -0 -0 -0 -1 nan
nan 0 0 -0 0 0 1 0 0 -0 -0 0 0 0 0 0 0 0 0 0 -0 -0 -0 -0 -0 -0 -0 0 0 0 0 0 0 0 0 0 -0 0 0 -0 -0 0 nan
nan 0 0 -0 -0 0 0 0 0 0 0 0 0 0 0 0 0 0 0 0 0 -0 -0 -0 -0 -0 -0 0 -0 -0 -0 -0 -0 -0 -0 0 0 0 0 0 0 -0 nan
nan nan nan nan nan nan nan nan nan nan nan nan nan nan nan nan nan nan nan nan nan nan nan nan nan nan nan nan nan nan nan nan nan nan nan nan nan nan nan nan nan nan nan
Wind_Speed
24 24 23 22 21 19 20 22 24 24 22 20 19 19 17 14 13 11 10 8 8 4 4 5 7 9 10 12 12 11 9 9 12 16 13 10 8 10 11 8 7 7 7
28 27 26 24 24 21 18 23 22 24 23 20 20 17 15 15 15 15 14 13 12 9 9 6 6 7 7 8 10 9 9 11 17 21 17 13 12 10 10 8 5 5 4
36 32 30 27 25 25 24 24 22 23 22 21 19 17 18 17 16 15 15 15 14 12 10 9 6 4 3 4 5 6 8 10 18 24 13 10 7 13 9 9 8 6 4
37 36 35 31 28 26 25 24 23 22 21 20 19 18 18 18 18 16 15 14 15 15 14 12 10 8 8 6 3 4 6 9 14 23 18 15 13 11 9 9 7 6 4
43 40 37 33 30 27 24 24 22 20 21 21 20 19 18 19 17 16 15 14 14 13 13 11 10 6 5 7 8 8 7 10 13 16 16 13 15 15 14 12 7 5 4
42 39 36 33 30 28 25 23 21 20 19 19 18 17 20 20 18 17 16 14 14 13 12 11 9 8 5 4 6 6 6 6 7 8 11 11 13 13 11 9 10 8 6
44 42 41 36 31 27 25 22 20 19 19 18 19 19 20 21 20 19 17 15 14 12 11 9 8 6 4 3 6 5 6 6 6 6 6 6 7 8 7 8 7 7 8
41 44 42 37 31 26 24 22 20 20 20 19 19 20 21 20 19 18 16 15 13 12 10 8 7 5 5 6 6 5 5 5 4 4 4 3 3 3 3 4 4 5 8
43 44 40 35 31 27 24 23 23 22 20 20 20 21 20 20 18 17 16 14 13 12 11 9 7 7 7 5 5 4 3 3 2 1 1 1 2 3 5 6 6 6 5
41 40 37 35 31 28 28 27 25 23 22 21 21 21 20 19 18 18 16 15 14 12 11 9 8 7 5 4 3 2 2 1 1 0 1 2 3 4 5 7 7 8 8
40 41 38 33 31 28 27 26 25 23 22 22 21 20 20 19 18 17 16 15 13 12 10 9 7 6 5 4 2 1 1 1 1 1 1 2 3 4 5 6 8 9 10
40 40 37 33 31 29 29 28 26 24 23 22 21 21 20 20 19 18 16 15 12 11 9 8 6 5 4 3 2 1 0 1 2 2 3 4 5 6 7 8 9 10 13
39 39 36 34 33 31 30 28 26 25 24 24 23 22 21 20 18 17 15 13 11 10 9 7 6 5 4 2 1 0 1 2 3 4 5 6 7 8 9 10 12 13 14
42 41 38 35 32 30 29 29 28 26 25 24 23 22 21 20 17 15 14 12 11 9 8 6 5 3 2 1 1 2 3 4 6 7 8 9 10 11 13 14 15 16 17
42 42 40 36 33 31 30 28 28 28 27 25 23 22 20 19 17 15 14 13 11 8 7 5 4 3 2 3 4 5 6 7 8 10 12 13 14 14 16 17 18 19 21
41 43 40 37 35 33 32 30 30 29 26 24 22 21 19 18 17 15 13 11 9 7 5 3 3 4 4 4 7 9 11 12 13 13 14 16 16 17 18 19 20 20 20
45 43 40 38 35 33 32 31 29 27 25 22 21 20 18 17 15 13 11 9 7 6 5 4 4 6 7 8 10 10 14 15 16 16 18 18 18 19 20 20 20 20 19
47 44 40 37 35 34 32 31 28 26 24 22 21 19 17 15 13 10 8 7 5 4 4 5 7 8 9 10 11 11 15 15 16 17 18 19 19 18 20 21 22 22 22
43 42 38 36 35 34 32 31 28 25 23 22 19 17 14 12 9 8 7 5 5 4 5 7 8 9 9 10 10 10 14 15 16 16 16 17 19 20 19 22 24 26 28
38 39 38 36 35 34 31 30 29 26 23 21 18 15 12 11 9 7 5 4 4 5 6 7 8 9 10 9 8 9 13 15 16 17 20 21 17 17 17 20 22 25 28
38 37 36 36 35 34 31 28 26 24 21 18 16 14 12 9 7 5 4 3 3 3 4 5 6 7 8 8 7 10 12 14 14 17 19 18 15 17 19 20 25 24 26
38 39 40 38 34 31 28 27 24 22 19 17 14 12 10 8 6 4 3 2 1 2 3 4 6 7 8 8 9 9 10 12 15 16 16 21 19 15 18 20 20 22 25
41 39 39 35 31 28 26 26 23 20 17 16 13 10 8 6 5 3 2 2 4 4 5 6 7 9 8 8 11 12 12 13 14 15 15 18 17 22 24 23 21 23 26
41 38 37 35 32 28 23 19 20 18 15 13 11 9 8 6 5 4 4 4 6 6 6 7 9 10 8 7 12 14 15 16 18 15 10 21 29 29 29 26 25 23 22
37 36 36 33 30 25 22 19 17 15 13 12 11 9 7 7 6 5 4 6 6 7 8 8 10 10 11 12 13 12 14 15 12 21 25 25 24 24 24 24 24 24 24
36 34 32 29 27 23 20 18 16 14 13 13 11 10 8 7 7 6 5 4 4 2 1 1 4 8 7 9 9 10 11 12 14 17 18 18 19 20 23 24 25 25 25
Wind_Direction
208 209 209 201 205 202 176 175 183 188 188 190 191 189 178 195 196 209 198 175 204 183 168 200 205 202 206 210 211 211 207 180 172 149 143 135 135 132 126 137 144 149 146
211 210 210 202 198 198 195 183 190 191 193 196 199 197 192 190 194 199 202 190 193 221 236 233 219 209 211 218 217 215 211 194 176 168 161 137 143 151 146 149 140 143 150
210 210 212 209 204 200 194 200 192 195 199 200 205 202 205 195 194 193 199 193 193 189 198 218 213 199 199 226 220 214 201 189 178 178 180 168 182 161 144 153 164 163 198
215 212 208 207 207 204 199 198 200 195 200 205 212 208 211 206 198 192 195 192 190 185 187 198 211 225 244 260 248 252 231 214 198 195 202 205 195 179 164 146 154 170 186
215 210 207 206 206 207 203 202 203 202 206 214 216 214 210 205 199 193 193 190 189 185 181 182 188 204 227 245 264 281 242 219 215 209 209 201 195 192 182 182 173 198 213
212 211 208 206 205 205 208 204 204 206 208 209 209 208 209 206 199 194 191 186 183 180 178 178 184 175 195 233 286 242 191 176 180 188 206 209 200 204 204 194 184 203 209
203 201 203 201 201 200 201 201 200 202 200 196 196 196 200 200 196 191 185 181 177 173 173 171 175 167 173 193 191 179 164 154 158 155 157 163 181 194 202 206 197 196 207
199 201 202 201 201 201 199 198 196 194 189 188 192 193 193 193 191 187 183 179 175 172 168 170 166 151 158 162 155 156 153 139 139 136 140 156 180 202 220 226 227 210 218
193 196 195 195 194 195 195 194 190 186 185 185 188 188 188 188 185 179 174 175 171 168 162 162 155 159 162 159 152 156 152 142 146 162 189 257 265 274 281 279 275 269 244
186 189 189 189 190 190 187 183 182 179 180 181 182 182 179 177 175 172 171 169 168 163 158 155 160 164 169 167 166 172 167 169 164 179 291 298 296 296 294 296 295 289 278
179 181 182 184 186 185 184 180 177 177 178 177 176 175 172 170 169 168 168 165 164 156 157 164 167 168 164 161 160 157 124 81 46 36 2 324 316 309 307 305 304 300 293
176 177 177 178 179 180 179 178 175 176 176 172 171 170 169 166 165 164 164 160 159 159 162 164 163 162 158 149 147 134 70 12 359 345 335 325 317 310 306 302 300 299 299
172 172 174 176 178 179 178 176 173 173 171 169 168 166 166 164 164 163 162 160 162 163 161 159 159 158 155 153 162 164 327 332 332 328 324 319 316 313 308 304 300 300 299
172 172 174 177 177 177 177 176 173 172 169 167 166 166 164 163 164 163 161 161 161 159 156 155 157 158 162 185 275 309 314 316 317 313 310 310 310 308 304 301 301 301 299
172 176 175 175 174 174 172 171 170 167 167 166 164 164 163 162 164 162 160 159 158 158 159 165 174 191 231 276 284 290 292 296 301 302 302 303 302 303 303 303 301 300 300
169 178 175 175 174 173 170 167 166 165 163 164 163 164 163 161 160 158 157 158 160 164 171 191 223 244 268 291 298 303 298 296 296 296 297 297 298 296 294 293 293 297 302
175 178 175 174 173 171 169 166 164 162 160 161 161 161 159 157 157 158 159 162 169 185 202 233 266 281 291 291 296 302 297 301 304 303 302 301 301 300 297 295 297 298 302
176 176 175 171 169 168 164 163 162 160 159 158 158 156 156 157 158 159 166 179 194 217 244 266 278 287 293 296 296 308 302 305 306 309 314 315 310 306 308 311 314 312 307
173 172 170 167 165 163 162 160 157 157 156 155 154 153 152 156 165 177 186 201 222 248 271 285 296 301 307 310 312 329 319 320 322 327 329 327 325 329 325 313 307 307 307
171 165 163 161 161 160 159 159 155 155 155 156 159 159 164 172 178 186 199 223 253 282 301 310 316 320 324 325 327 345 332 335 345 343 334 331 330 327 324 316 313 309 312
163 162 158 158 159 160 160 160 161 160 155 149 155 164 173 178 186 199 224 258 283 306 324 340 347 346 344 344 354 6 346 1 345 335 334 338 341 328 320 312 307 313 312
158 160 159 159 158 160 164 160 155 150 150 158 166 174 180 183 191 207 226 256 328 34 52 36 20 15 17 29 31 15 357 349 336 342 346 342 340 331 321 316 315 317 309
158 158 157 155 155 156 159 151 148 153 162 168 168 171 177 179 183 181 168 133 104 87 57 38 28 27 49 69 47 21 359 344 339 341 322 316 312 314 315 315 313 307 303
153 156 155 151 149 149 148 151 154 161 162 164 163 163 165 161 155 152 147 131 122 80 43 31 12 13 31 48 28 6 356 355 350 317 314 315 316 313 314 312 313 311 309
152 155 154 150 145 145 153 157 156 158 159 159 157 156 152 146 146 151 150 130 126 53 13 11 356 354 0 14 356 342 344 345 350 309 308 317 326 329 330 327 324 320 317
152 151 148 145 147 153 153 151 152 153 154 152 148 150 153 154 153 154 144 129 108 124 168 9 332 322 326 336 335 337 333 322 322 326 336 345 347 348 345 341 336 330 324
Height
1523 1526 1529 1529 1526 1532 1531 1534 1540 1544 1549 1555 1556 1558 1559 1562 1565 1566 1567 1566 1570 1570 1570 1573 1575 1575 1575 1577 1577 1577 1579 1579 1580 1581 1582 1587 1587 1584 1583 1583 1583 1583 1584
1519 1522 1525 1526 1528 1530 1529 1533 1539 1540 1546 1550 1555 1556 1557 1560 1562 1565 1565 1564 1567 1569 1570 1572 1574 1575 1575 1576 1576 1576 1577 1578 1578 1581 1581 1585 1589 1586 1584 1584 1584 1585 1584
1511 1515 1521 1521 1523 1527 1530 1530 1537 1539 1541 1548 1553 1553 1557 1557 1560 1562 1562 1563 1565 1566 1568 1571 1572 1575 1574 1576 1576 1576 1576 1578 1576 1579 1580 1581 1583 1585 1585 1583 1583 1584 1584
1505 1513 1515 1515 1519 1525 1526 1530 1534 1535 1539 1544 1549 1552 1555 1556 1558 1558 1560 1562 1564 1564 1566 1568 1571 1573 1573 1575 1575 1576 1575 1576 1575 1576 1577 1577 1577 1579 1584 1584 1582 1582 1582
1499 1506 1510 1510 1513 1521 1523 1526 1530 1532 1536 1541 1546 1550 1551 1554 1555 1556 1559 1561 1562 1563 1565 1566 1568 1570 1571 1573 1574 1574 1574 1573 1573 1572 1575 1575 1576 1577 1578 1580 1581 1581 1580
1492 1501 1505 1503 1509 1516 1520 1522 1525 1529 1535 1539 1544 1546 1549 1552 1553 1555 1558 1559 1561 1562 1564 1566 1567 1566 1569 1570 1572 1573 1572 1571 1572 1570 1571 1573 1574 1574 1576 1577 1578 1578 1579
1482 1489 1493 1498 1505 1511 1516 1520 1523 1529 1533 1537 1540 1543 1546 1550 1551 1554 1556 1558 1560 1561 1563 1565 1566 1566 1567 1569 1570 1571 1571 1571 1572 1571 1570 1572 1573 1573 1574 1575 1576 1577 1577
1473 1480 1488 1495 1502 1510 1515 1518 1522 1528 1533 1534 1537 1541 1544 1547 1550 1552 1554 1557 1560 1562 1562 1565 1565 1565 1566 1570 1570 1570 1571 1570 1571 1571 1571 1572 1573 1573 1573 1573 1574 1575 1575
1468 1476 1485 1494 1500 1506 1511 1517 1522 1526 1530 1532 1536 1540 1543 1547 1549 1551 1554 1557 1559 1561 1562 1564 1565 1565 1566 1569 1570 1571 1570 1570 1570 1571 1571 1571 1572 1572 1572 1572 1572 1572 1573
1466 1475 1483 1490 1497 1504 1510 1515 1520 1523 1526 1531 1534 1538 1542 1545 1548 1551 1555 1557 1559 1560 1561 1563 1564 1565 1566 1567 1569 1570 1570 1570 1569 1569 1570 1570 1570 1571 1570 1570 1569 1570 1570
1464 1472 1481 1490 1497 1504 1509 1514 1518 1522 1526 1530 1534 1538 1542 1545 1549 1552 1554 1556 1558 1559 1561 1563 1564 1565 1566 1566 1568 1568 1569 1569 1568 1568 1569 1569 1569 1569 1569 1568 1568 1567 1567
1465 1473 1481 1489 1495 1501 1506 1512 1516 1520 1525 1530 1534 1538 1542 1546 1549 1551 1554 1556 1558 1559 1561 1563 1564 1564 1566 1566 1567 1568 1568 1568 1568 1567 1567 1567 1568 1568 1567 1567 1566 1565 1563
1465 1473 1481 1487 1492 1499 1504 1510 1516 1521 1526 1530 1534 1538 1542 1545 1548 1551 1553 1556 1558 1559 1560 1562 1563 1564 1565 1566 1567 1566 1567 1567 1566 1566 1566 1567 1566 1566 1565 1564 1563 1562 1561
1462 1469 1477 1485 1492 1498 1504 1510 1515 1521 1526 1531 1535 1538 1542 1545 1548 1551 1553 1555 1557 1559 1560 1561 1562 1563 1564 1564 1565 1565 1565 1565 1565 1565 1565 1564 1564 1563 1562 1561 1559 1558 1556
1461 1466 1473 1482 1490 1497 1504 1510 1516 1521 1526 1530 1534 1538 1541 1544 1548 1550 1552 1555 1557 1558 1559 1560 1561 1562 1563 1563 1563 1563 1563 1563 1563 1562 1562 1561 1560 1559 1558 1556 1555 1553 1552
1456 1464 1471 1480 1488 1495 1503 1509 1515 1521 1526 1530 1534 1538 1542 1544 1547 1550 1553 1555 1556 1558 1558 1559 1560 1560 1561 1561 1560 1559 1560 1560 1560 1559 1558 1557 1557 1555 1554 1553 1551 1550 1548
1451 1463 1469 1478 1487 1495 1503 1509 1515 1521 1526 1530 1534 1538 1542 1545 1547 1550 1552 1554 1555 1557 1557 1558 1558 1558 1559 1558 1558 1557 1556 1556 1556 1555 1553 1553 1552 1550 1549 1548 1547 1546 1545
1447 1459 1471 1479 1488 1495 1502 1509 1516 1521 1526 1530 1534 1538 1542 1545 1547 1550 1551 1553 1554 1555 1555 1556 1556 1556 1556 1556 1555 1554 1553 1552 1552 1550 1549 1548 1547 1546 1544 1542 1542 1541 1540
1448 1458 1468 1479 1489 1496 1503 1509 1515 1521 1526 1531 1535 1539 1542 1545 1547 1549 1550 1552 1552 1553 1553 1553 1554 1553 1554 1553 1552 1551 1549 1548 1548 1547 1546 1544 1542 1542 1542 1541 1538 1536 1534
1456 1463 1472 1480 1490 1497 1504 1510 1515 1521 1526 1530 1534 1538 1542 1544 1546 1547 1549 1550 1550 1550 1551 1550 1551 1551 1550 1549 1549 1549 1547 1546 1544 1544 1543 1542 1541 1541 1540 1538 1535 1531 1529
1458 1468 1476 1483 1492 1498 1504 1511 1516 1521 1525 1530 1534 1538 1541 1543 1544 1546 1547 1547 1548 1548 1548 1548 1548 1548 1548 1547 1546 1547 1545 1544 1543 1543 1542 1540 1538 1538 1537 1535 1531 1528 1526
1463 1469 1476 1485 1494 1501 1507 1512 1516 1521 1526 1530 1534 1537 1539 1541 1542 1543 1544 1545 1546 1546 1547 1547 1547 1546 1546 1545 1544 1546 1546 1545 1543 1541 1540 1538 1536 1535 1532 1529 1528 1525 1518
1464 1473 1481 1489 1496 1503 1508 1512 1517 1522 1527 1531 1533 1535 1537 1539 1540 1541 1542 1543 1544 1544 1545 1545 1545 1545 1545 1545 1545 1544 1544 1543 1541 1540 1538 1535 1532 1530 1527 1524 1522 1519 1515
1469 1477 1484 1490 1497 1503 1509 1515 1519 1523 1527 1529 1532 1534 1536 1537 1538 1540 1541 1542 1543 1543 1543 1544 1543 1544 1544 1544 1544 1543 1542 1540 1538 1535 1533 1531 1528 1525 1522 1517 1515 1512 1509
1474 1481 1487 1492 1499 1505 1511 1516 1519 1523 1525 1528 1531 1533 1535 1536 1537 1539 1540 1541 1542 1542 1542 1543 1543 1543 1542 1541 1542 1542 1540 1538 1538 1533 1530 1527 1523 1519 1516 1512 1509 1506 1503
1479 1485 1490 1495 1501 1507 1512 1515 1519 1522 1525 1527 1530 1533 1534 1535 1537 1538 1538 1539 1540 1541 1542 1543 1543 1542 1542 1541 1541 1540 1539 1536 1534 1529 1526 1523 1519 1516 1512 1508 1504 1500 1497